Location: Crope
(47.8105°N, 1.5756°W)
Time: 10:16:29
(UTC+00:00)

Daily predictions for brighter satellites

Satellite Brightness Start Highest point End
(mag) Time Altitude Azimuth Time Altitude Azimuth Time Altitude Azimuth
Meteor 1-31 Rocket 3.7 16:41:23 10° S 16:45:07 54° W 16:48:53 10° NNW
NOSS 2-2 (C) 4.4 16:44:04 10° NW 16:49:11 83° NE 16:56:26 10° SE
Cosmos 1092 Rocket 4.0 16:46:22 10° N 16:52:44 69° E 16:59:01 10° SSE
Cosmos 1898 Rocket 4.0 16:47:42 10° NNW 16:52:54 66° WSW 16:58:03 10° S
CZ-4B R/B 4.2 16:50:22 10° ESE 16:54:26 23° ENE 16:58:28 10° N
CZ-2D R/B 4.4 16:53:26 10° ESE 16:56:25 22° ENE 16:59:24 10° NNE
ATLAS CENTAUR R/B 3.1 16:46:09 10° SW 16:57:06 86° SE 17:01:25 10° NE
USA 267 3.7 16:51:11 10° ENE 16:57:29 48° SE 17:03:45 10° SSW
Cosmos 1939 Rocket 3.1 16:55:01 10° SE 16:58:57 48° ENE 17:02:52 10° N
USA 306 3.5 16:55:39 10° WNW 16:59:40 39° NNE 17:03:40 10° E
Cosmos 1633 Rocket 3.8 16:57:27 10° N 17:01:20 30° ENE 17:05:12 10° SE
Cosmos 1151 Rocket 3.9 16:57:38 10° SSE 17:01:22 29° E 17:05:07 10° NNE
COSMO-SKYMED 1 4.4 16:59:36 10° ENE 17:01:46 13° E 17:03:55 10° ESE
Cosmos 1666 3.4 16:59:50 10° N 17:03:08 30° ENE 17:06:27 10° SE
Cosmos 1782 3.0 16:59:28 10° S 17:03:21 52° E 17:07:13 10° NNE
Cosmos 2360 Rocket 3.6 17:00:38 10° N 17:04:24 18° NE 17:08:08 10° E
ISS -2.3 17:02:07 10° WNW 17:05:20 41° SSW 17:08:32 10° SE
Cosmos 1763 Rocket 4.2 17:03:01 10° SW 17:08:00 54° WNW 17:13:03 10° NNE
SeaSat 1 3.9 17:04:43 10° NNE 17:09:07 33° NW 17:13:30 10° WSW
SL-08 R/B 3.4 17:04:56 10° NNE 17:09:38 77° WNW 17:14:14 10° SSW
Cosmos 1818 3.7 17:05:13 10° NNW 17:10:37 55° NE 17:15:58 10° SE
NOAA 12 4.2 17:06:14 10° SSE 17:11:34 87° WSW 17:16:55 10° NNW
CZ-2C R/B 3.9 17:13:08 10° S 17:14:46 12° SSE 17:16:22 10° SE
Meteor 2-14 Rocket 4.4 17:09:29 10° N 17:15:37 79° E 17:21:41 10° SSE
ATLAS 5 CENTAUR R/B 3.2 17:08:33 10° NW 17:16:59 37° NNE 17:19:38 14° E
Cosmos 1627 Rocket 4.5 17:10:59 10° N 17:17:12 88° E 17:23:19 10° S
Cosmos 2279 Rocket 4.2 17:11:31 10° SSE 17:17:23 47° E 17:23:16 10° NNE
Cosmos 841 Rocket 3.5 17:13:02 10° SSW 17:18:11 87° ESE 17:23:22 10° NNE
Meteor PRIRODA 4.2 17:15:09 10° S 17:18:43 60° W 17:22:19 10° NNW
ERBS 4.2 17:17:10 10° NW 17:19:16 16° N 17:20:46 12° NNE
USA 307 3.4 17:16:15 10° WNW 17:20:19 43° NNE 17:23:32 15° E
CZ-4C R/B 3.0 17:14:23 10° NW 17:21:35 89° NE 17:30:03 10° SE
Lacrosse 5 rocket 1.2 17:19:51 10° NW 17:23:44 72° NE 17:27:50 10° ESE
Cosmos 1697 Rocket 4.3 17:19:35 10° NW 17:24:45 38° WSW 17:29:54 10° S
Cosmos 372 Rocket 4.3 17:19:41 10° NNW 17:24:56 74° WSW 17:30:10 10° SSE
ATLAS 2AS CENTAUR R/B 4.2 17:20:42 10° NW 17:26:35 23° N 17:31:18 13° NE
Cosmos 2208 Rocket 4.4 17:22:32 10° S 17:27:42 47° ESE 17:32:51 10° NNE
Cosmos 2322 Rocket 2.9 17:22:36 10° NNW 17:27:44 33° NE 17:32:50 10° ESE
Cosmos 2150 Rocket 4.3 17:24:55 10° NNW 17:29:51 42° ENE 17:34:49 10° SE
AQUARIUS 4.1 17:25:47 10° SSE 17:30:15 80° ENE 17:34:47 10° NNW
Cosmos 1666 Rocket 3.5 17:26:35 10° N 17:31:02 70° E 17:35:24 10° SSE
Cosmos 1980 Rocket 2.7 17:25:33 10° NNW 17:31:10 65° WSW 17:36:43 10° SSE
Cosmos 1328 Rocket 4.0 17:27:10 10° SSE 17:31:21 41° E 17:35:32 10° NNE
USA 234 3.2 17:25:18 10° ESE 17:31:50 74° NNE 17:38:22 10° NW
Cosmos 1470 Rocket 4.0 17:30:23 10° N 17:34:35 38° ENE 17:38:46 10° SE
Cosmos 1544 4.0 17:31:34 10° NNE 17:34:40 26° ENE 17:37:45 10° SE
CORIOLIS 4.2 17:30:21 10° SSE 17:35:46 90° E 17:41:16 10° NNW
Cosmos 1125 Rocket 3.8 17:31:04 10° NNW 17:36:06 44° ENE 17:41:08 10° SE
X-37B 2.5 17:34:52 10° SSW 17:36:46 16° SSE 17:37:49 14° SE
Cosmos 1812 2.6 17:33:17 10° S 17:37:07 75° E 17:40:59 10° NNE
Cosmos 2026 Rocket 4.3 17:31:24 10° NNW 17:37:30 70° W 17:43:30 10° S
PSLV R/B 3.6 17:34:40 10° SSE 17:38:21 68° ENE 17:42:07 10° N
H-2A R/B 2.0 17:34:08 10° SSE 17:39:09 61° ENE 17:44:04 10° N
Cosmos 1634 Rocket 4.2 17:33:25 10° S 17:39:46 81° W 17:46:08 10° N
Okean O Rocket 2.2 17:36:59 10° SE 17:41:01 35° ENE 17:45:05 10° N
Meteor 1-11 Rocket 4.1 17:36:20 10° N 17:41:36 39° ENE 17:46:58 10° SE
USA 308 3.2 17:38:57 10° WNW 17:43:07 50° NNE 17:45:21 25° E
Meteor 2-21 Rocket 4.5 17:38:08 10° N 17:44:15 86° W 17:50:18 10° S
Sich 1 4.2 17:42:17 10° NNW 17:46:24 45° W 17:50:32 10° SSW
SL-16 R/B 2.3 17:42:58 10° NNW 17:48:34 55° ENE 17:54:07 10° SE
SKYMED 2 4.1 17:47:47 20° NE 17:50:16 38° E 17:54:19 10° SSE
ARGOS 3.3 17:45:54 10° SE 17:51:06 49° ENE 17:56:17 10° N
Cosmos 2082 Rocket 2.6 17:45:44 10° SW 17:51:21 64° WNW 17:56:57 10° NNE
Meteor 1-5 Rocket 4.4 17:47:44 10° NNW 17:53:45 84° W 17:59:36 10° S
SMAP 4.0 17:50:02 10° S 17:54:33 52° W 17:59:08 10° NNW
deb Chang Zheng 4 3.6 17:52:19 10° SSE 17:56:31 55° ENE 18:00:45 10° N
COSMOS 2455 3.5 17:53:49 10° SW 17:59:41 52° NW 18:04:53 13° NNE
Cosmos 1833 Rocket 4.3 18:00:12 10° WSW 18:05:02 29° NW 18:09:54 10° NNE
USA 305 2.8 18:03:16 10° WNW 18:07:31 69° NNE 18:08:52 41° E
Cosmos 2333 Rocket 3.3 18:03:23 10° N 18:08:05 25° NE 18:08:05 25° NE
Cosmos 1356 Rocket 3.4 18:05:08 10° N 18:09:19 58° ENE 18:13:30 10° SSE
CZ-2C R/B 2.5 18:06:50 13° NNE 18:11:29 65° ESE 18:16:37 10° S
Cosmos 2180 Rocket 4.5 18:08:57 10° S 18:15:17 87° W 18:21:35 10° N
Cosmos 2219 Rocket 3.5 18:11:26 10° N 18:15:05 23° NNE 18:15:05 23° NNE
Cosmos 44 Rocket 4.1 18:11:53 10° NW 18:16:39 51° WSW 18:21:14 10° SSE
Cosmos 1655 Rocket 3.9 18:10:50 10° N 18:17:16 81° E 18:23:37 10° S
Aureole 3 Rocket 3.8 18:13:19 10° SSE 18:17:47 48° E 18:24:01 10° NNE
Cosmos 1515 Rocket 3.4 18:14:01 10° S 18:18:25 70° E 18:20:27 31° NNE
Cosmos 921 Rocket 2.9 18:16:38 10° SSW 18:20:50 81° WNW 18:22:47 32° NNE
CZ-4 R/B 4.3 18:21:39 10° SSE 18:25:46 89° ENE 18:29:56 10° NNW
Cosmos 546 4.5 18:25:19 10° WSW 18:29:09 90° S 18:29:11 88° E
CZ-4B R/B 3.5 18:29:13 10° S 18:34:33 64° WSW 18:39:51 10° NNW
Cosmos 371 Rocket 4.2 18:30:45 10° NNW 18:33:50 34° NNE 18:33:50 34° NNE
COSMO-SKYMED 1 2.8 18:36:24 31° N 18:38:25 70° WNW 18:42:44 10° SSW
USA 306 2.8 18:35:34 10° WNW 18:39:50 82° SSW 18:39:52 82° SSW
USA 267 3.4 18:37:47 35° NE 18:40:40 67° NNW 18:47:09 10° WSW
Landsat 5 3.5 18:41:36 66° S 18:41:36 66° S 18:45:00 10° SSW
Meteor 2-15 Rocket 4.4 18:36:57 10° S 18:43:05 83° W 18:49:14 10° N
APEX 3.9 18:40:07 10° SW 18:43:02 45° WSW 18:43:02 45° WSW
Meteor 1-27 Rocket 3.5 18:38:51 10° S 18:44:21 80° E 18:46:30 39° NNE
YAOGAN 1 4.4 18:48:30 21° N 18:48:30 21° N 18:49:58 10° N
Cosmos 836 Rocket 4.4 18:41:51 10° SSW 18:47:09 90° E 18:48:20 56° NNE
Cosmos 2360 Rocket 2.0 18:43:44 10° NNW 18:49:26 74° ENE 18:50:07 65° ESE
Cosmos 2237 4.2 18:47:10 10° NNW 18:52:54 81° WSW 18:55:53 30° SSE
CZ-2C R/B 3.7 18:51:08 10° SW 18:53:22 14° S 18:53:23 14° S
USA 307 3.6 18:56:10 10° WNW 18:59:35 52° W 18:59:35 52° W
SL-08 RB Rocket 4.3 18:57:56 10° S 19:02:28 55° W 19:06:59 10° NNW
Lacrosse 5 rocket 3.7 18:59:29 10° W 19:02:31 21° SW 19:04:38 15° SSW
Cosmos 2322 Rocket 3.0 19:06:30 10° NW 19:12:00 50° WSW 19:17:08 12° S
COSMOS 2428 4.2 19:08:17 10° NNW 19:10:45 24° N 19:10:45 24° N
USA 234 4.3 19:10:00 15° SSE 19:15:09 41° SW 19:21:17 10° WNW
NOSS 3-4 (A) 3.9 19:10:10 10° NW 19:16:19 57° NNE 19:16:19 57° NNE
NOSS 3-4 (C) 3.9 19:10:16 10° NW 19:16:24 56° NNE 19:16:24 56° NNE
Okean O Rocket 3.6 19:13:34 10° SSW 19:17:24 28° W 19:21:16 10° NW
Cosmos 1867 3.8 19:14:14 10° SW 19:19:09 66° W 19:19:09 66° W
ATLAS 2AS CENTAUR R/B 3.7 19:13:04 10° NW 19:18:44 34° N 19:18:44 34° N
GEOS 3 Rocket 4.3 19:23:02 46° NNW 19:23:02 46° NNW 19:26:38 10° NW
NOSS 3-3 (A) 4.1 19:21:05 10° SW 19:25:51 65° SW 19:25:51 65° SW
NOSS 3-3 (C) 4.1 19:21:11 10° SW 19:25:55 64° SW 19:25:55 64° SW
ATLAS CENTAUR R/B 4.2 19:23:55 10° WNW 19:27:07 20° NW 19:27:07 20° NW
SL-16 R/B 4.1 19:27:41 10° NW 19:32:19 27° WSW 19:36:58 10° SSW
Cosmos 2082 Rocket 4.5 19:33:12 10° WNW 19:36:37 16° NW 19:38:48 13° N
Cosmos 2333 Rocket 3.7 19:47:15 10° NNW 19:50:07 30° NW 19:50:07 30° NW
Cosmos 2219 Rocket 4.1 19:54:51 10° NNW 19:56:50 22° NNW 19:56:50 22° NNW
